Rifle, CO

10:33 PM MDT on August 19, 2017 (GMT -0600)
Garfield County Regional

Weather History for KRIL - October, 2013

Change the Weather History Date:

Friday, October 4, 2013

  Actual Average Record
Temperature  
Mean Temperature 38 °F 54 °F  
Max Temperature 43 °F 70 °F 84 °F (1975)
Min Temperature 32 °F 38 °F 24 °F (1959)
Degree Days  
Heating Degree Days 27 11  
Month to date heating degree days 53 42  
Since 1 July heating degree days 164 188  
Cooling Degree Days 0 0  
Month to date cooling degree days 0 0  
Year to date cooling degree days 798 541  
Moisture  
Dew Point 30 °F    
Average Humidity 74    
Maximum Humidity 100    
Minimum Humidity 48    
Precipitation  
Precipitation 0.16 in 0.05 in 1.36 in (1914)
Month to date precipitation 0.49 0.23  
Year to date precipitation 7.99 10.70  
Sea Level Pressure  
Sea Level Pressure 30.11 in    
Wind  
Wind Speed 10 mph (West)    
Max Wind Speed 25 mph    
Max Gust Speed 32 mph    
Visibility 6 miles    
Events Rain , Snow    
T = Trace of Precipitation, MM = Missing Value Source: NWS Daily Summary

Daily Weather History Graph

Daily Weather History Graph

Search for Another Location

Airport or City:

Trip Planner

Search our weather history database for the weather conditions in past years. The results will help you decide how hot, cold, wet, or windy it might be!

Date:

Astronomy

Oct. 04, 2013 Rise Set
Actual Time 7:10 AM MDT 6:48 PM MDT
Civil Twilight 6:43 AM MDT 7:14 PM MDT
Nautical Twilight 6:12 AM MDT 7:46 PM MDT
Astronomical Twilight 5:40 AM MDT 8:17 PM MDT
Moon 6:48 AM MDT (10/4) 6:32 PM MDT (10/4)
Length of Visible Light 12h 31m
Length of Day
11h 37m
Waning Crescent, 0% of the Moon is Illuminated
Oct 4
Waning Crescent
Oct 4
New
Oct 11
First Quarter
Oct 18
Full
Oct 26
Last Quarter

Hourly Weather History & Observations

Time (MDT) Temp. Windchill Dew Point Humidity Pressure Visibility Wind Dir Wind Speed Gust Speed Precip Events Conditions
12:04 AM 33.8 °F 24.8 °F 32.0 °F 93% 29.99 in 2.5 mi WSW 12.7 mph - 0.01 in Snow Light Snow
12:14 AM 33.8 °F 24.8 °F 32.0 °F 93% 29.99 in 4.0 mi WSW 12.7 mph - 0.03 in Snow Light Snow
12:25 AM 33.8 °F 25.3 °F 33.8 °F 100% 30.00 in 8.0 mi WSW 11.5 mph - 0.04 in Rain Light Rain
12:33 AM 33.8 °F 25.8 °F 33.8 °F 100% 30.00 in 10.0 mi West 10.4 mph - 0.04 in Rain Rain
12:53 AM 33.1 °F 26.1 °F 32.0 °F 96% 29.90 in 5.0 mi West 8.1 mph - 0.07 in Snow Light Snow
1:00 AM 33.8 °F 28.6 °F 32.0 °F 93% 30.00 in 2.5 mi West 5.8 mph - 0.01 in Snow Light Snow
1:06 AM 33.8 °F 28.6 °F 32.0 °F 93% 30.00 in 1.8 mi West 5.8 mph - 0.02 in Snow Light Snow
1:19 AM 32.0 °F 26.4 °F 32.0 °F 100% 30.01 in 1.8 mi West 5.8 mph - 0.04 in Snow Light Snow
1:30 AM 32.0 °F 25.6 °F 32.0 °F 100% 30.01 in 1.5 mi West 6.9 mph - 0.05 in Snow Light Snow
1:40 AM 32.0 °F 25.6 °F 32.0 °F 100% 30.02 in 2.0 mi West 6.9 mph - 0.06 in Snow Light Snow
1:53 AM 32.0 °F 27.5 °F 32.0 °F 100% 29.92 in 2.0 mi West 4.6 mph - 0.08 in Snow Light Snow
2:16 AM 33.8 °F - 32.0 °F 93% 30.02 in 1.2 mi Calm Calm - 0.03 in Snow Light Snow
2:28 AM 32.0 °F 28.7 °F 30.2 °F 93% 30.02 in 1.0 mi WNW 3.5 mph - 0.04 in Snow Light Snow
2:36 AM 32.0 °F - 32.0 °F 100% 30.01 in 0.8 mi Calm Calm - 0.05 in Snow Light Snow
2:43 AM 32.0 °F 26.4 °F 32.0 °F 100% 30.02 in 1.2 mi WSW 5.8 mph - 0.05 in Snow Light Snow
2:53 AM 33.1 °F 26.9 °F 32.0 °F 96% 29.91 in 2.5 mi West 6.9 mph - 0.06 in Snow Light Snow
3:08 AM 33.8 °F 26.4 °F 32.0 °F 93% 30.02 in 2.5 mi West 9.2 mph - 0.00 in Snow Light Snow
3:23 AM 32.0 °F 24.8 °F 30.2 °F 93% 30.02 in 1.8 mi West 8.1 mph - 0.01 in Snow Light Snow
3:33 AM 33.8 °F 25.3 °F 32.0 °F 93% 30.02 in 2.5 mi West 11.5 mph - 0.01 in Snow Light Snow
3:40 AM 33.8 °F 26.4 °F 32.0 °F 93% 30.02 in 2.5 mi WNW 9.2 mph - 0.02 in Snow Light Snow
3:44 AM 33.8 °F 25.8 °F 32.0 °F 93% 30.02 in 4.0 mi WNW 10.4 mph - 0.02 in Snow Light Snow
3:53 AM 33.1 °F 23.9 °F 32.0 °F 96% 29.93 in 7.0 mi West 12.7 mph - 0.02 in Snow Light Snow
4:14 AM 33.8 °F 25.3 °F 32.0 °F 93% 30.04 in 9.0 mi WNW 11.5 mph - 0.00 in Snow Light Snow
4:53 AM 34.0 °F 28.0 °F 33.1 °F 96% 29.96 in 10.0 mi WNW 6.9 mph - 0.00 in Rain Light Rain
5:53 AM 35.1 °F 27.9 °F 32.0 °F 89% 30.06 in 10.0 mi West 9.2 mph - 0.00 in   Overcast
6:53 AM 35.1 °F 29.3 °F 32.0 °F 89% 30.09 in 10.0 mi West 6.9 mph - N/A   Overcast
7:53 AM 35.1 °F 28.6 °F 32.0 °F 89% 30.11 in 10.0 mi West 8.1 mph - N/A   Overcast
8:53 AM 36.0 °F 28.5 °F 32.0 °F 86% 30.13 in 10.0 mi West 10.4 mph - N/A   Overcast
9:53 AM 37.0 °F 29.8 °F 30.9 °F 79% 30.16 in 10.0 mi WNW 10.4 mph - 0.00 in Rain Light Rain
10:53 AM 39.9 °F 31.4 °F 30.0 °F 68% 30.18 in 10.0 mi WNW 16.1 mph - 0.00 in Rain Light Rain
11:53 AM 39.9 °F 32.9 °F 28.0 °F 63% 30.21 in 10.0 mi WSW 11.5 mph - 0.00 in Rain Light Rain
12:53 PM 39.0 °F 32.3 °F 28.0 °F 65% 30.24 in 10.0 mi WNW 10.4 mph - 0.00 in Rain Light Rain
1:53 PM 39.9 °F 31.1 °F 25.0 °F 55% 30.25 in 10.0 mi NW 17.3 mph 25.3 mph 0.01 in   Mostly Cloudy
2:53 PM 41.0 °F 30.9 °F 28.0 °F 60% 30.26 in 10.0 mi NW 24.2 mph 32.2 mph N/A   Scattered Clouds
3:53 PM 41.0 °F 32.5 °F 27.0 °F 57% 30.29 in 10.0 mi WNW 17.3 mph - N/A   Overcast
4:53 PM 39.9 °F 32.5 °F 25.0 °F 55% 30.32 in 10.0 mi WNW 12.7 mph - N/A   Mostly Cloudy
5:53 PM 39.9 °F 33.4 °F 21.9 °F 49% 30.32 in 10.0 mi NNW 10.4 mph - N/A   Scattered Clouds
6:53 PM 37.0 °F 31.0 °F 25.0 °F 62% 30.34 in 10.0 mi West 8.1 mph - N/A   Clear
7:53 PM 35.1 °F 28.6 °F 24.1 °F 64% 30.37 in 10.0 mi West 8.1 mph - N/A   Clear
8:53 PM 35.1 °F 27.9 °F 23.0 °F 61% 30.38 in 10.0 mi WNW 9.2 mph - N/A   Partly Cloudy
9:53 PM 34.0 °F - 25.0 °F 70% 30.38 in 10.0 mi Calm Calm - N/A   Overcast
10:53 PM 34.0 °F - 23.0 °F 64% 30.38 in 10.0 mi Calm Calm - N/A   Overcast
11:53 PM 33.1 °F - 27.0 °F 78% 30.38 in 10.0 mi Calm Calm - N/A   Overcast